ARG1613 SAZM-SABE

Flight info

Callsign ARG1613
Flight time 0h 44m
Altitude 29000
Route PULPA1C PULPA UW31 TENIL TENIL8R
Aircraft B738/M-SDE2E3FGHIRWXY/LB1

Departure

Time 2026-05-07 02:47
Airport Ástor Piazzola International Airport (SAZM)

Arrival

Time 2026-05-07 03:31
Airport Aeroparque Jorge Newbery (SABE)
Time Latitude Longitude Altitude Speed Heading
2026-05-07 02:15 -37.93334 -57.58070 108 ft 0 kts 334°
2026-05-07 02:34 -37.93335 -57.58069 53 ft 2 kts 333°
2026-05-07 02:34 -37.93345 -57.58061 51 ft 2 kts 315°
2026-05-07 02:34 -37.93353 -57.58048 48 ft 2 kts 298°
2026-05-07 02:35 -37.93359 -57.58034 50 ft 2 kts 294°
2026-05-07 02:35 -37.93363 -57.58023 49 ft 1 kts 295°
2026-05-07 02:35 -37.93365 -57.58016 49 ft 1 kts 296°
2026-05-07 02:35 -37.93368 -57.58009 51 ft 1 kts 297°
2026-05-07 02:36 -37.93374 -57.57995 50 ft 0 kts 299°
2026-05-07 02:39 -37.93365 -57.58009 49 ft 3 kts 315°
2026-05-07 02:39 -37.93347 -57.58019 53 ft 3 kts 346°
2026-05-07 02:39 -37.93328 -57.58021 53 ft 3 kts 355°
2026-05-07 02:40 -37.93309 -57.58023 53 ft 3 kts 355°
2026-05-07 02:40 -37.93291 -57.58027 53 ft 3 kts 346°
2026-05-07 02:40 -37.93274 -57.58035 53 ft 3 kts 336°
2026-05-07 02:40 -37.93258 -57.58042 53 ft 2 kts 348°
2026-05-07 02:41 -37.93240 -57.58041 53 ft 4 kts 11°
2026-05-07 02:41 -37.93206 -57.58019 53 ft 0 kts 31°
2026-05-07 02:44 -37.93163 -57.57986 53 ft 14 kts 31°
2026-05-07 02:44 -37.93061 -57.58014 53 ft 14 kts 302°
2026-05-07 02:44 -37.92988 -57.58179 50 ft 29 kts 304°
2026-05-07 02:45 -37.92919 -57.58371 48 ft 14 kts 339°
2026-05-07 02:45 -37.92903 -57.58351 49 ft 1 kts 114°
2026-05-07 02:45 -37.92904 -57.58348 50 ft 0 kts 116°
2026-05-07 02:46 -37.92906 -57.58343 50 ft 6 kts 116°
2026-05-07 02:46 -37.93065 -57.58028 53 ft 79 kts 122°
2026-05-07 02:46 -37.93483 -57.57200 53 ft 142 kts 122°
2026-05-07 02:47 -37.94081 -57.56090 623 ft 155 kts 124°
2026-05-07 02:47 -37.94747 -57.54961 1345 ft 170 kts 127°
2026-05-07 02:47 -37.95565 -57.53664 1644 ft 207 kts 124°
2026-05-07 02:47 -37.95984 -57.51853 2016 ft 226 kts 82°
2026-05-07 02:48 -37.95376 -57.50026 2461 ft 232 kts 44°
2026-05-07 02:48 -37.94009 -57.48955 2951 ft 237 kts 11°
2026-05-07 02:48 -37.92335 -57.48845 3481 ft 249 kts 352°
2026-05-07 02:48 -37.90599 -57.49136 4086 ft 261 kts 348°
2026-05-07 02:49 -37.88773 -57.49511 4832 ft 268 kts 347°
2026-05-07 02:49 -37.86922 -57.49905 5714 ft 270 kts 347°
2026-05-07 02:49 -37.85065 -57.50303 6570 ft 271 kts 346°
2026-05-07 02:49 -37.83197 -57.50702 7390 ft 273 kts 346°
2026-05-07 02:50 -37.81318 -57.51101 8246 ft 275 kts 346°
2026-05-07 02:50 -37.79423 -57.51502 9090 ft 276 kts 345°
2026-05-07 02:50 -37.77515 -57.51905 9880 ft 280 kts 345°
2026-05-07 02:50 -37.75548 -57.52323 10355 ft 293 kts 345°
2026-05-07 02:51 -37.73513 -57.52753 11023 ft 298 kts 345°
2026-05-07 02:51 -37.71452 -57.53134 11813 ft 300 kts 347°
2026-05-07 02:51 -37.69370 -57.53437 12609 ft 302 kts 347°
2026-05-07 02:51 -37.67272 -57.53723 13364 ft 304 kts 347°
2026-05-07 02:52 -37.65157 -57.54009 14063 ft 306 kts 347°
2026-05-07 02:52 -37.63043 -57.54297 14796 ft 306 kts 347°
2026-05-07 02:52 -37.60917 -57.54590 15534 ft 307 kts 347°
2026-05-07 02:52 -37.58795 -57.54886 16246 ft 308 kts 347°
2026-05-07 02:53 -37.56658 -57.55187 16950 ft 309 kts 347°
2026-05-07 02:53 -37.54511 -57.55490 17650 ft 311 kts 347°
2026-05-07 02:53 -37.52380 -57.55793 18280 ft 312 kts 347°
2026-05-07 02:53 -37.50191 -57.56104 18894 ft 314 kts 347°
2026-05-07 02:54 -37.48043 -57.56410 19483 ft 315 kts 347°
2026-05-07 02:54 -37.45856 -57.56722 20060 ft 317 kts 347°
2026-05-07 02:54 -37.43655 -57.57035 20647 ft 319 kts 347°
2026-05-07 02:54 -37.41434 -57.57352 21223 ft 321 kts 347°
2026-05-07 02:55 -37.39207 -57.57669 21787 ft 323 kts 347°
2026-05-07 02:55 -37.36965 -57.57988 22347 ft 325 kts 347°
2026-05-07 02:55 -37.34713 -57.58309 22885 ft 327 kts 347°
2026-05-07 02:55 -37.32439 -57.58632 23381 ft 330 kts 347°
2026-05-07 02:56 -37.30149 -57.58958 23822 ft 332 kts 347°
2026-05-07 02:56 -37.27845 -57.59285 24253 ft 335 kts 347°
2026-05-07 02:56 -37.25521 -57.59615 24677 ft 337 kts 348°
2026-05-07 02:56 -37.23181 -57.59947 25100 ft 339 kts 348°
2026-05-07 02:57 -37.20827 -57.60280 25533 ft 341 kts 348°
2026-05-07 02:57 -37.18489 -57.60611 25971 ft 343 kts 348°
2026-05-07 02:57 -37.16085 -57.60950 26386 ft 345 kts 348°
2026-05-07 02:57 -37.13688 -57.61290 26767 ft 348 kts 348°
2026-05-07 02:58 -37.11268 -57.61632 27156 ft 350 kts 348°
2026-05-07 02:58 -37.08836 -57.61976 27546 ft 353 kts 348°
2026-05-07 02:58 -37.06417 -57.62317 27917 ft 355 kts 349°
2026-05-07 02:58 -37.03954 -57.62664 28298 ft 357 kts 349°
2026-05-07 02:59 -37.01467 -57.63015 28605 ft 361 kts 349°
2026-05-07 02:59 -36.98938 -57.63373 28595 ft 370 kts 349°
2026-05-07 02:59 -36.93717 -57.64112 28620 ft 385 kts 349°
2026-05-07 03:00 -36.88296 -57.64874 28611 ft 397 kts 349°
2026-05-07 03:00 -36.82798 -57.65641 28601 ft 398 kts 349°
2026-05-07 03:01 -36.77289 -57.66409 28602 ft 398 kts 349°
2026-05-07 03:01 -36.71789 -57.67177 28606 ft 397 kts 349°
2026-05-07 03:02 -36.66314 -57.67941 28609 ft 395 kts 349°
2026-05-07 03:02 -36.60876 -57.68702 28622 ft 400 kts 349°
2026-05-07 03:03 -36.55253 -57.69490 28623 ft 413 kts 349°
2026-05-07 03:03 -36.49469 -57.70297 28621 ft 422 kts 349°
2026-05-07 03:04 -36.43643 -57.71102 28620 ft 420 kts 349°
2026-05-07 03:04 -36.37827 -57.71906 28615 ft 419 kts 349°
2026-05-07 03:05 -36.32033 -57.72708 28623 ft 419 kts 349°
2026-05-07 03:05 -36.26240 -57.73509 28622 ft 418 kts 349°
2026-05-07 03:06 -36.23383 -57.73902 28603 ft 406 kts 349°
2026-05-07 03:06 -36.20634 -57.74276 28609 ft 389 kts 349°
2026-05-07 03:06 -36.17991 -57.74635 28608 ft 374 kts 349°
2026-05-07 03:06 -36.15476 -57.74979 28605 ft 364 kts 349°
2026-05-07 03:07 -36.12963 -57.75327 28417 ft 364 kts 349°
2026-05-07 03:07 -36.10438 -57.75562 28401 ft 370 kts 359°
2026-05-07 03:07 -36.07864 -57.74844 28412 ft 390 kts 14°
2026-05-07 03:07 -36.05311 -57.73545 28413 ft 401 kts 16°
2026-05-07 03:08 -36.02700 -57.72193 28169 ft 414 kts 16°
2026-05-07 03:08 -36.00005 -57.70811 27941 ft 427 kts 16°
2026-05-07 03:08 -35.97217 -57.69421 27469 ft 433 kts 15°
2026-05-07 03:08 -35.94438 -57.68047 27010 ft 425 kts 15°
2026-05-07 03:09 -35.91715 -57.66700 26550 ft 419 kts 15°
2026-05-07 03:09 -35.89029 -57.65369 26124 ft 412 kts 15°
2026-05-07 03:09 -35.86379 -57.64084 25717 ft 405 kts 14°
2026-05-07 03:09 -35.83764 -57.62881 25338 ft 397 kts 13°
2026-05-07 03:10 -35.81192 -57.61713 24985 ft 392 kts 13°
2026-05-07 03:10 -35.78764 -57.60609 24667 ft 386 kts 13°
2026-05-07 03:10 -35.76266 -57.59472 24367 ft 381 kts 13°
2026-05-07 03:10 -35.73758 -57.58335 24116 ft 387 kts 13°
2026-05-07 03:11 -35.71178 -57.57181 23882 ft 403 kts 13°
2026-05-07 03:11 -35.69372 -57.56383 23731 ft 409 kts 13°
2026-05-07 03:11 -35.66686 -57.55202 23498 ft 410 kts 13°
2026-05-07 03:11 -35.64005 -57.54024 23276 ft 408 kts 13°
2026-05-07 03:12 -35.61373 -57.52867 23017 ft 406 kts 13°
2026-05-07 03:12 -35.58686 -57.51686 22741 ft 404 kts 13°
2026-05-07 03:12 -35.56072 -57.50539 22479 ft 403 kts 13°
2026-05-07 03:12 -35.53434 -57.49383 22218 ft 402 kts 13°
2026-05-07 03:13 -35.50807 -57.48234 21947 ft 400 kts 13°
2026-05-07 03:13 -35.48205 -57.47094 21607 ft 393 kts 13°
2026-05-07 03:13 -35.45622 -57.46106 21103 ft 382 kts
2026-05-07 03:13 -35.43015 -57.45956 20515 ft 372 kts 352°
2026-05-07 03:14 -35.40439 -57.46136 19918 ft 369 kts 351°
2026-05-07 03:14 -35.37885 -57.46386 19382 ft 367 kts 350°
2026-05-07 03:14 -35.32845 -57.46916 18422 ft 360 kts 350°
2026-05-07 03:15 -35.30358 -57.47184 17920 ft 357 kts 349°
2026-05-07 03:15 -35.27892 -57.47452 17377 ft 354 kts 349°
2026-05-07 03:15 -35.25444 -57.47719 16838 ft 352 kts 349°
2026-05-07 03:15 -35.23087 -57.48173 16289 ft 343 kts 337°
2026-05-07 03:16 -35.20989 -57.49467 15793 ft 335 kts 324°
2026-05-07 03:16 -35.19160 -57.51195 15301 ft 331 kts 315°
2026-05-07 03:16 -35.17572 -57.53220 14783 ft 329 kts 312°
2026-05-07 03:16 -35.16032 -57.55280 14284 ft 327 kts 311°
2026-05-07 03:17 -35.14510 -57.57331 13819 ft 325 kts 311°
2026-05-07 03:17 -35.12994 -57.59369 13343 ft 323 kts 311°
2026-05-07 03:17 -35.11488 -57.61388 12833 ft 320 kts 311°
2026-05-07 03:17 -35.09990 -57.63387 12350 ft 318 kts 311°
2026-05-07 03:18 -35.08501 -57.65368 11877 ft 315 kts 311°
2026-05-07 03:18 -35.07013 -57.67343 11302 ft 316 kts 311°
2026-05-07 03:18 -35.05532 -57.69307 10828 ft 313 kts 311°
2026-05-07 03:18 -35.04065 -57.71249 10544 ft 305 kts 311°
2026-05-07 03:19 -35.02651 -57.73118 10399 ft 294 kts 311°
2026-05-07 03:19 -35.01290 -57.74916 10265 ft 283 kts 311°
2026-05-07 03:19 -34.99981 -57.76645 10149 ft 272 kts 311°
2026-05-07 03:19 -34.98734 -57.78291 10056 ft 262 kts 311°
2026-05-07 03:20 -34.97521 -57.79891 9969 ft 252 kts 311°
2026-05-07 03:20 -34.96355 -57.81428 9822 ft 244 kts 311°
2026-05-07 03:20 -34.95177 -57.82984 9176 ft 255 kts 311°
2026-05-07 03:20 -34.93959 -57.84590 8666 ft 260 kts 311°
2026-05-07 03:21 -34.92725 -57.86216 8175 ft 263 kts 311°
2026-05-07 03:21 -34.91476 -57.87861 7687 ft 266 kts 311°
2026-05-07 03:21 -34.90210 -57.89527 7206 ft 269 kts 311°
2026-05-07 03:21 -34.88932 -57.91208 6727 ft 271 kts 311°
2026-05-07 03:22 -34.87645 -57.92900 6185 ft 274 kts 311°
2026-05-07 03:22 -34.86336 -57.94620 5572 ft 280 kts 311°
2026-05-07 03:22 -34.85002 -57.96372 4953 ft 283 kts 311°
2026-05-07 03:22 -34.83772 -57.97985 4517 ft 283 kts 311°
2026-05-07 03:23 -34.82451 -57.99718 4029 ft 283 kts 311°
2026-05-07 03:23 -34.81098 -58.01492 3525 ft 282 kts 311°
2026-05-07 03:23 -34.79763 -58.03243 3145 ft 280 kts 311°
2026-05-07 03:23 -34.78484 -58.04916 3054 ft 269 kts 311°
2026-05-07 03:24 -34.77244 -58.06540 3013 ft 255 kts 311°
2026-05-07 03:24 -34.76070 -58.08076 3002 ft 241 kts 311°
2026-05-07 03:24 -34.74964 -58.09523 3003 ft 227 kts 311°
2026-05-07 03:24 -34.73915 -58.10894 2997 ft 214 kts 311°
2026-05-07 03:25 -34.72927 -58.12185 2996 ft 204 kts 311°
2026-05-07 03:25 -34.71970 -58.13436 3004 ft 204 kts 310°
2026-05-07 03:25 -34.71002 -58.14699 3014 ft 204 kts 310°
2026-05-07 03:25 -34.70092 -58.16011 3014 ft 202 kts 302°
2026-05-07 03:26 -34.69308 -58.17426 2839 ft 203 kts 302°
2026-05-07 03:26 -34.68524 -58.18870 2562 ft 203 kts 302°
2026-05-07 03:26 -34.67761 -58.20261 2511 ft 192 kts 302°
2026-05-07 03:26 -34.67049 -58.21552 2483 ft 180 kts 302°
2026-05-07 03:27 -34.66375 -58.22770 2492 ft 167 kts 302°
2026-05-07 03:27 -34.65737 -58.23925 2508 ft 160 kts 302°
2026-05-07 03:27 -34.65138 -58.25007 2474 ft 149 kts 302°
2026-05-07 03:27 -34.64569 -58.26037 2357 ft 161 kts 302°
2026-05-07 03:28 -34.63877 -58.27287 2481 ft 183 kts 302°
2026-05-07 03:28 -34.63181 -58.28539 2142 ft 180 kts 302°
2026-05-07 03:28 -34.62507 -58.29749 1908 ft 163 kts 302°
2026-05-07 03:28 -34.61917 -58.30809 1789 ft 142 kts 302°
2026-05-07 03:29 -34.61370 -58.31789 1715 ft 142 kts 301°
2026-05-07 03:29 -34.60815 -58.32789 1561 ft 143 kts 301°
2026-05-07 03:29 -34.60275 -58.33760 1371 ft 138 kts 300°
2026-05-07 03:29 -34.59737 -58.34727 1198 ft 141 kts 299°
2026-05-07 03:30 -34.59181 -58.35727 1001 ft 144 kts 300°
2026-05-07 03:30 -34.58621 -58.36735 808 ft 146 kts 303°
2026-05-07 03:30 -34.58045 -58.37768 632 ft 149 kts 303°
2026-05-07 03:30 -34.57453 -58.38840 425 ft 158 kts 307°
2026-05-07 03:31 -34.56832 -58.39944 234 ft 159 kts 306°
2026-05-07 03:31 -34.56230 -58.41025 30 ft 145 kts 302°
2026-05-07 03:31 -34.55727 -58.41929 28 ft 109 kts 304°
2026-05-07 03:31 -34.55497 -58.42341 27 ft 33 kts 304°
2026-05-07 03:32 -34.55442 -58.42439 26 ft 10 kts 304°
2026-05-07 03:32 -34.55375 -58.42482 26 ft 17 kts 39°
2026-05-07 03:32 -34.55398 -58.42327 27 ft 18 kts 128°
2026-05-07 03:32 -34.55469 -58.42208 31 ft 16 kts 128°
2026-05-07 03:33 -34.55536 -58.42103 26 ft 15 kts 127°
2026-05-07 03:33 -34.55596 -58.41999 28 ft 15 kts 125°
2026-05-07 03:33 -34.55634 -58.41932 26 ft 14 kts 124°
2026-05-07 03:33 -34.55707 -58.41802 28 ft 13 kts 123°
2026-05-07 03:34 -34.55752 -58.41709 29 ft 11 kts 117°
2026-05-07 03:34 -34.55783 -58.41637 27 ft 5 kts 117°
2026-05-07 03:34 -34.55798 -58.41600 30 ft 5 kts 117°
2026-05-07 03:34 -34.55813 -58.41563 28 ft 5 kts 117°
2026-05-07 03:35 -34.55829 -58.41524 27 ft 5 kts 116°
2026-05-07 03:35 -34.55855 -58.41462 29 ft 11 kts 116°
2026-05-07 03:35 -34.55890 -58.41383 26 ft 10 kts 115°
2026-05-07 03:35 -34.55894 -58.41303 26 ft 10 kts 52°
2026-05-07 03:36 -34.55847 -58.41279 30 ft 0 kts 358°
2026-05-07 03:36 -34.55835 -58.41273 28 ft 3 kts 25°
2026-05-07 03:36 -34.55816 -58.41257 27 ft 3 kts 36°
2026-05-07 03:36 -34.55806 -58.41247 29 ft 0 kts 39°
2026-05-07 03:37 -34.55804 -58.41245 26 ft 1 kts 39°
2026-05-07 03:37 -34.55803 -58.41245 26 ft 0 kts 39°